Starlink 35067

operational
NORAD ID: 65527 Int'l Des: 2025-200 Owner: SPXS Country: US Constellation: starlink
LEOCIRCULARRETROGRADE

Starlink 35067について

説明を読み込み中...

リアルタイム位置

3D地球を読み込み中...

次回通過

高度履歴

Altitude vs Time

uPlot chart will show altitude changes over time

軌道要素

1 65527U 25200H 25304.76662760 -.00236030 00000-0 -63847-2 0 9994
2 65527 97.6051 12.4314 0003866 53.6790 306.4811 15.38615061 9719
Epoch: Oct 31, 2025 • Age: 25 hours

現在のステータス

高度 459.2 km
速度 7.64 km/s
衛星直下点 59.17°N, 24.78°E
打ち上げ日 Sep 6, 2025
運用期間 0.1 years
タイプ internet

技術仕様

分類 Payload
質量 575.00 kg
乾燥質量 530.00 kg
総質量 575.00 kg
長さ 0.30 m
直径 4.10 m
スパン 29.00 m
形状 Box + pan
製造者 SPXS
バスタイプ Starlink V2MO
フェーズステータス In Orbit
所有者/国 SPXS/US

大規模コンステレーション

Loading constellations...